Regional Weather Roundup
Issued by NWS Sterling, VA

Home | Current Version | Previous Version | Text Only | Print | Product List | Glossary On
Versions: 1 2 3 4 5 6 7 8 9 10 11 12 13 14 15 16 17 18 19 20 21 22 23 24 25 26 27 28 29 30 31 32 33 34 35 36 37 38 39 40 41 42 43 44 45 46 47 48 49 50
000
ASUS41 KLWX 211011
RWRLWX

REGIONAL WEATHER ROUNDUP
NATIONAL WEATHER SERVICE BALTIMORE MD/WASHINGTON DC
600 AM EDT SAT OCT 21 2017

Note: "FAIR" indicates few or no clouds below 12,000 feet
with no significant weather and/or obstructions to visibility.
 TC=TEMPERATURE CELSIUS

 * =Non NWS site. Station does not report precipitation (e.g. rain,
    snow, etc.), thunder, or fog.

DCZ001-MDZ009-015-VAZ040>042-051-053>054-211100-
WASHINGTON METRO

CITY           SKY/WX    TMP DP  RH WIND       PRES   REMARKS
WASHINGTON NAT CLEAR     52  49  89 N6        30.30R
DULLES         CLEAR     43  43 100 CALM      30.30R
ANDREWS AFB    CLEAR     48  44  87 CALM      30.29R
FT BELVOIR     CLEAR     45  44  95 CALM      30.29R
QUANTICO       CLEAR     50  48  93 NW8       30.30R
COLLEGE PARK*  CLEAR     45  44  97 CALM      30.29R
LEESBURG*      CLEAR     45  45 100 CALM      30.31R
MANASSAS*      CLEAR     41  40  96 CALM      30.31R
GAITHERSBURG*  CLEAR     44  43  96 CALM      30.30R

$$

MDZ006>007-011-014-211100-
BALTIMORE METRO

CITY           SKY/WX    TMP DP  RH WIND       PRES   REMARKS
BWI AIRPORT    PTCLDY    46  46 100 CALM      30.29R
MD SCIENCE CTR   N/A     56  45  66 MISG      30.29R
MARTIN STATE   CLEAR     46  46 100 CALM      30.31R
ANNAPOLIS      CLEAR     54  54 100 CALM      30.28R
FORT MEADE*    CLEAR     43  41  93 CALM      30.31R

$$

MDZ012-015-019>023-211100-
MARYLAND EASTERN SHORE

CITY           SKY/WX    TMP DP  RH WIND       PRES   REMARKS
OCEAN CITY     CLEAR     47  46  97 CALM      30.27S
SALISBURY      CLEAR     46  45  96 CALM      30.28R
CAMBRIDGE*     CLEAR     46  45  93 CALM      30.28R
EASTON*        CLEAR     48  46  93 CALM      30.31S

$$

MDZ017>025-211100-
SOUTHERN MARYLAND

CITY           SKY/WX    TMP DP  RH WIND       PRES   REMARKS
PATUXENT RIVER CLEAR     47  47 100 W6        30.28R
ST INIGOES     CLEAR     48  47  96 CALM      30.27R
LEONARDTOWN*   NOT AVBL

$$

MDZ003>005-211100-
NORTH CENTRAL MARYLAND

CITY           SKY/WX    TMP DP  RH WIND       PRES   REMARKS
FREDERICK*     CLEAR     43  43 100 CALM      30.33R
HAGERSTOWN APT CLEAR     46  41  82 CALM      30.31R
WESTMINSTER*   CLEAR     52  43  71 CALM      30.29R

$$

MDZ501>502-211100-
WESTERN MARYLAND

CITY           SKY/WX    TMP DP  RH WIND       PRES   REMARKS
OAKLAND*       CLOUDY    54  34  47 S8        30.30R
CUMBERLAND*    PTCLDY    43  41  93 CALM      30.36R

$$

VAZ025>031-211100-
SHENANDOAH VALLEY

CITY           SKY/WX    TMP DP  RH WIND       PRES   REMARKS
WINCHESTER*    CLEAR     41  41 100 CALM      30.30R
FRONT ROYAL*   PTCLDY    41  41 100 MISG      30.30R
LURAY*         CLEAR     43  43 100 CALM      30.31R
NEW MARKET*    CLEAR     41  40  96 CALM      30.32R
STAUNTON*      PTCLDY    39  39  97 CALM      30.34R
WAYNESBORO*    CLEAR     44  44  99 CALM      30.32R

$$

WVZ021-048>050-054>055-211100-
EASTERN WEST VIRGINIA PANHANDLE

CITY           SKY/WX    TMP DP  RH WIND       PRES   REMARKS
MARTINSBURG    CLEAR     42  39  89 CALM      30.30R
PETERSBURG*    CLOUDY    39  38  98 CALM      30.33R

$$

VAZ036>039-050-211100-
CENTRAL FOOTHILLS

CITY           SKY/WX    TMP DP  RH WIND       PRES   REMARKS
CHARLOTTESVILL CLEAR     49  47  93 CALM      30.30R
CULPEPER*      CLEAR     42  40  95 CALM      30.31R FOG
ORANGE*        CLEAR     45  45 100 CALM      30.30R
GORDONSVILLE*  CLEAR     45  45 100 CALM      30.30R
WARRENTON*     CLEAR     39  37  91 CALM      30.30R

$$

VAZ055>057-211100-
NORTH AND CENTRAL PIEDMONT

CITY           SKY/WX    TMP DP  RH WIND       PRES   REMARKS
FREDERICKSBRG* CLEAR     46  46 100 CALM      30.29R
STAFFORD*      CLEAR     42  42 100 CALM      30.34R

$$

NCZ024-NYZ072-PAZ021-071-VAZ022-071-211100-
OTHER REGIONAL OBSERVATIONS

CITY           SKY/WX    TMP DP  RH WIND       PRES   REMARKS
NEW YORK CITY  CLEAR     57  36  45 CALM      30.30R
PHILADELPHIA   CLEAR     50  44  80 CALM      30.29R
PITTSBURGH     CLEAR     43  40  89 CALM      30.27R
ROANOKE        CLEAR     49  48  97 CALM      30.33R
RICHMOND       CLEAR     50  50 100 CALM      30.28R
RALEIGH        CLEAR     48  48 100 CALM      30.28R

$$

ANZ530>537-211100-
MARINE OBSERVATIONS

STATION/POSITION TIME  TEMP    WIND        PRES
                       AIR SEA DIR/SP/G
                 (UTC) (F)     (DEG/KT/KT) (MB)
THOMAS PT LIGHT  1000   61 67  330/  4/  5   N/A
BALT KEY BRIDGE  0942   57     270/  3/  3 1025.5R
COVE POINT       0942   62      CALM  /  1 1025.8R
LEWISETTA        0942   56 65  250/  2/  3 1025.1R
SOLOMONS ISLAND  0942   57 69  310/  1/  3 1025.0R
PINEY POINT      0936           10/  2/  2   N/A

$$




USA.gov is the U.S. government's official web portal to all federal, state and local government web resources and services.